[[{"header":{"parameterUnit":"m.s-1","parameterCategory":1,"la1":30.2991,"la2":30.254,"lo1":-89.0895,"lo2":-89.0444,"dy":0.0017,"dx":0.0017,"nx":28,"ny":28,"refTime":"2024-10-03T21:00:00:Z","depth":0,"parameterNumber":2,"parameterNumberName":"U-component_of_WINDS"},"data":[0,0,0,0,0,0,0,0,0,0,0,0,0,0,0,0,0,0,0,0,0,0,0,0,0,0,0,0,0,0,0,0,0,0,0,0,0,0,0,0,0,0,0,0,0,0,0,0,0,0,0,0,0,0,0,0,0,0,-4.0929,-4.0928,0,-4.0873,-4.0872,-4.0871,-4.0751,-4.0748,-4.0746,-4.0743,-4.069,-4.069,-4.0691,0,0,0,0,0,0,0,0,0,0,0,0,0,-4.0936,-4.0937,-4.0929,-4.0928,-4.0927,-4.0873,-4.0872,-4.0871,-4.0751,-4.0748,-4.0745,-4.0742,-4.0689,-4.069,-4.0691,0,0,0,0,0,0,0,0,0,0,0,0,0,-4.0912,-4.0937,-4.0929,-4.0861,-4.0854,-4.0873,-4.0872,-4.0871,-4.0752,-4.0748,-4.0744,-4.0741,-4.0689,-4.069,-4.0691,-4.0773,0,0,-4.0695,-4.0696,0,0,0,0,0,0,0,0,-4.0914,-4.0912,-4.0872,-4.0865,-4.0858,-4.0815,-4.0855,-4.0838,-4.0753,-4.0791,-4.0743,-4.0739,-4.0734,-4.0732,-4.0729,-4.0771,-4.0768,-4.0695,-4.0696,-4.0697,-4.0697,0,0,0,0,0,0,0,-4.0915,-4.0914,-4.0907,-4.0871,-4.0863,-4.0834,-4.0827,-4.0851,-4.0784,-4.0787,-4.0778,-4.0773,-4.073,-4.0729,-4.0727,-4.0768,-4.0695,-4.0697,-4.0697,-4.0698,-4.0874,-4.0878,0,0,0,0,0,0,-4.0926,-4.0916,-4.0908,-4.0905,-4.0877,-4.0837,-4.0829,-4.0832,-4.0783,-4.0772,-4.0776,-4.0768,-4.0728,-4.0726,-4.0725,-4.0818,-4.0697,-4.0698,-4.0699,-4.087,-4.0875,-4.0879,0,0,0,0,0,0,-4.0927,-4.0927,-4.0911,-4.0908,-4.0904,-4.0841,-4.0846,-4.0833,-4.0831,-4.0775,-4.0763,-4.0787,-4.0725,-4.0723,-4.0762,-4.0814,-4.0699,-4.07,-4.0866,-4.0872,-4.0877,-4.1004,0,0,0,0,0,0,-4.0928,-4.0928,-4.0957,-4.091,-4.0904,-4.0948,-4.0849,-4.0835,-4.0834,-4.0822,-4.0782,-4.0771,-4.0722,-4.0761,-4.0763,-4.0814,-4.0701,-4.0861,-4.0869,-4.0875,-4.0995,-4.1013,-4.1029,0,0,0,0,0,-4.0928,-4.0996,-4.0959,-4.0959,-4.0939,-4.0951,-4.0948,-4.0889,-4.0838,-4.0868,-4.0832,-4.0773,-4.0808,-4.0766,-4.0768,-4.0819,-4.0857,-4.0866,-4.0875,-4.0987,-4.101,-4.1029,0,0,0,0,0,0,-4.1052,-4.0988,-4.0947,-4.1,-4.0982,-4.0931,-4.0966,-4.0915,-4.0911,-4.09,-4.0828,-4.082,-4.0869,-4.0848,-4.0802,-4.0896,-4.0823,-4.0833,-4.0908,-4.0929,-4.0946,-4.095,-4.0702,0,0,0,0,0,-4.1085,-4.1099,-4.1043,-4.1095,-4.1088,-4.1029,-4.1032,-4.0988,-4.0966,-4.0958,-4.0925,-4.0908,-4.0915,-4.0921,-4.0924,-4.0992,-4.0982,-4.1028,-4.1046,-4.106,-4.1069,-4.1104,-4.1124,-4.0908,-4.0908,-4.0908,0,0,-4.1154,-4.1121,-4.1134,-4.1119,-4.11,-4.1117,-4.1023,-4.1045,-4.1057,-4.0962,-4.0996,-4.0972,-4.0948,-4.1001,-4.1023,-4.0985,-4.1127,-4.1071,-4.1083,-4.1084,-4.1115,-4.1136,-4.1154,-4.0914,-4.0913,-4.0912,0,0,-4.1289,-4.1265,-4.1306,-4.1289,-4.126,-4.122,-4.1231,-4.1187,-4.1167,-4.12,-4.113,-4.1144,-4.1158,-4.1143,-4.1138,-4.1269,-4.1215,-4.1273,-4.1363,-4.1398,-4.1415,-4.1429,-4.1476,-4.1494,-4.1282,-4.1282,-4.1283,0,-4.1378,-4.1399,-4.1334,-4.136,-4.1356,-4.1271,-4.1313,-4.1299,-4.1274,-4.1274,-4.1232,-4.1248,-4.1226,-4.1275,-4.1307,-4.1306,-4.1316,-4.1276,-4.1417,-4.1431,-4.1444,-4.1488,-4.1506,-4.129,-4.1289,-4.1288,-4.1287,0,-4.1511,-4.1527,-4.1565,-4.1541,-4.1542,-4.1576,-4.1518,-4.1526,-4.1483,-4.1449,-4.1485,-4.1455,-4.1452,-4.146,-4.1419,-4.1505,-4.1482,-4.143,-4.1355,-4.1473,-4.1513,-4.153,-4.13,-4.1297,-4.1295,-4.1293,0,0,-4.172,-4.1661,-4.1676,-4.1665,-4.1628,-4.164,-4.1671,-4.1667,-4.1676,-4.1662,-4.1687,-4.1702,-4.1653,-4.1647,-4.1604,-4.1635,-4.1741,-4.1578,-4.1576,-4.161,-4.1835,-4.1875,-4.1895,-4.1705,-4.1708,-4.1711,-4.1837,0,-4.1845,-4.1894,-4.1837,-4.1898,-4.1913,-4.1833,-4.186,-4.1842,-4.1811,-4.182,-4.1787,-4.1798,-4.1733,-4.1729,-4.1756,-4.1722,-4.1785,-4.1713,-4.1729,-4.173,-4.1737,-4.1916,-4.1957,-4.2078,-4.1852,-4.1855,-4.1857,0,-4.1997,-4.199,-4.2053,-4.2013,-4.2017,-4.2042,-4.2034,-4.2044,-4.2022,-4.1998,-4.1992,-4.194,-4.1969,-4.1897,-4.1938,-4.189,-4.1893,-4.1878,-4.1881,-4.188,-4.18,-4.192,-4.2115,-4.2133,-4.1881,-4.1879,-4.1877,0,-4.2144,-4.215,-4.2188,-4.2181,-4.2135,-4.2155,-4.2138,-4.2112,-4.2113,-4.2107,-4.2107,-4.2106,-4.2105,-4.2105,-4.2054,-4.2006,-4.2101,-4.2025,-4.2083,-4.2084,-4.2106,-4.2105,-4.2304,-4.2109,-4.2109,-4.2109,-4.2108,0,-4.2289,-4.233,-4.2253,-4.2276,-4.2321,-4.2257,-4.2303,-4.2277,-4.2256,-4.2274,-4.2205,-4.2225,-4.2156,-4.2168,-4.2129,-4.2169,-4.2169,-4.2151,-4.214,-4.2157,-4.216,-4.2158,-4.2148,-4.2113,-4.2112,-4.2112,-4.2111,0,-4.2459,-4.2408,-4.2445,-4.2399,-4.2389,-4.2424,-4.2385,-4.2406,-4.2372,-4.2396,-4.2398,-4.2345,-4.2356,-4.2305,-4.2308,-4.2281,-4.2341,-4.2316,-4.2349,-4.2341,-4.2402,-4.2397,-4.2607,-4.2631,-4.2421,-4.2424,-4.2425,0,-4.2555,-4.2584,-4.2542,-4.2549,-4.2535,-4.2547,-4.2548,-4.2486,-4.2491,-4.2469,-4.2493,-4.2498,-4.2499,-4.2521,-4.2483,-4.2485,-4.246,-4.2533,-4.246,-4.2476,-4.2461,-4.246,-4.2463,-4.2549,-4.2551,-4.2553,-4.2555,0,-4.273,-4.2704,-4.2707,-4.2703,-4.2706,-4.27,-4.2689,-4.2699,-4.2633,-4.2642,-4.2651,-4.2652,-4.2655,-4.2662,-4.2656,-4.2639,-4.2587,-4.2579,-4.2592,-4.261,-4.2627,-4.2619,-4.239,-4.2574,-4.2572,-4.2571,-4.257,-4.2569,-4.2865,-4.2889,-4.2863,-4.2869,-4.2855,-4.2847,-4.2864,-4.2832,-4.2839,-4.2836,-4.28,-4.2817,-4.2796,-4.2783,-4.2772,-4.2786,-4.2751,-4.2771,-4.2776,-4.2782,-4.2792,-4.2625,-4.2785,-4.2784,-4.2784,-4.2783,-4.2783,0,-4.3037,-4.3017,-4.3024,-4.301,-4.3017,-4.2966,-4.2952,-4.2961,-4.2977,-4.2961,-4.2963,-4.2976,-4.2983,-4.2946,-4.2948,-4.2966,-4.2943,-4.2969,-4.2967,-4.2964,-4.2823,-4.2811,-4.2988,-4.2988,-4.2988,-4.2988,-4.2988,-4.2988,-4.3127,-4.3164,-4.3135,-4.3165,-4.3145,-4.316,-4.3157,-4.315,-4.3137,-4.3154,-4.3159,-4.3134,-4.3111,-4.3111,-4.3116,-4.3105,-4.3109,-4.3144,-4.3125,-4.2994,-4.2974,-4.2955,-4.2943,-4.3145,-4.3145,-4.3265,-4.3266,-4.3267]},{"header":{"parameterUnit":"m.s-1","parameterCategory":1,"la1":30.2991,"la2":30.254,"lo1":-89.0895,"lo2":-89.0444,"dy":0.0017,"dx":0.0017,"nx":28,"ny":28,"refTime":"2024-10-03T21:00:00:Z","depth":0,"parameterNumber":3,"parameterNumberName":"V-component_of_WINDS"},"data":[0,0,0,0,0,0,0,0,0,0,0,0,0,0,0,0,0,0,0,0,0,0,0,0,0,0,0,0,0,0,0,0,0,0,0,0,0,0,0,0,0,0,0,0,0,0,0,0,0,0,0,0,0,0,0,0,0,0,-2.947,-2.947,0,-2.9544,-2.9544,-2.9545,-2.9552,-2.9551,-2.955,-2.9549,-2.9623,-2.9625,-2.9628,0,0,0,0,0,0,0,0,0,0,0,0,0,-2.9332,-2.9334,-2.947,-2.947,-2.9471,-2.9543,-2.9544,-2.9545,-2.9552,-2.9551,-2.955,-2.9549,-2.9622,-2.9625,-2.9628,0,0,0,0,0,0,0,0,0,0,0,0,0,-2.9397,-2.9335,-2.9469,-2.9483,-2.9485,-2.9543,-2.9545,-2.9546,-2.9552,-2.9551,-2.955,-2.9549,-2.9621,-2.9625,-2.9629,-2.9677,0,0,-2.9641,-2.9643,0,0,0,0,0,0,0,0,-2.9394,-2.9402,-2.948,-2.9483,-2.9485,-2.9537,-2.9523,-2.959,-2.9552,-2.9527,-2.9549,-2.9548,-2.9595,-2.9601,-2.9618,-2.968,-2.9684,-2.9641,-2.9644,-2.9646,-2.9647,0,0,0,0,0,0,0,-2.9389,-2.9399,-2.9499,-2.9481,-2.9484,-2.9485,-2.9493,-2.9536,-2.9566,-2.9529,-2.953,-2.9538,-2.9596,-2.9614,-2.9619,-2.9685,-2.9641,-2.9645,-2.9647,-2.9649,-2.9791,-2.9792,0,0,0,0,0,0,-2.9382,-2.9395,-2.9496,-2.9501,-2.9435,-2.9489,-2.9498,-2.9522,-2.9566,-2.9572,-2.9539,-2.9538,-2.9607,-2.9615,-2.9622,-2.9681,-2.9646,-2.9649,-2.9652,-2.979,-2.9791,-2.9793,0,0,0,0,0,0,-2.9379,-2.9391,-2.9493,-2.9448,-2.9462,-2.9492,-2.9519,-2.9524,-2.9541,-2.9574,-2.9579,-2.9552,-2.9607,-2.9616,-2.9663,-2.9684,-2.9651,-2.9655,-2.9788,-2.979,-2.9792,-2.98,0,0,0,0,0,0,-2.9375,-2.939,-2.9409,-2.9449,-2.9464,-2.9534,-2.952,-2.9526,-2.9548,-2.9548,-2.9587,-2.9592,-2.9607,-2.9657,-2.9667,-2.9689,-2.9658,-2.9786,-2.9789,-2.9791,-2.9798,-2.9802,-2.9806,0,0,0,0,0,-2.937,-2.9408,-2.941,-2.9422,-2.9488,-2.9535,-2.9544,-2.956,-2.955,-2.9569,-2.959,-2.9591,-2.968,-2.9662,-2.9674,-2.9696,-2.9785,-2.9788,-2.9791,-2.9797,-2.9802,-2.9806,0,0,0,0,0,0,-2.9368,-2.9413,-2.9416,-2.9468,-2.9498,-2.9536,-2.9561,-2.9565,-2.9598,-2.9596,-2.9614,-2.9623,-2.9669,-2.9688,-2.9667,-2.9746,-2.9732,-2.9737,-2.9732,-2.9737,-2.9741,-2.9735,-2.9661,0,0,0,0,0,-2.9374,-2.9409,-2.9446,-2.9488,-2.9504,-2.953,-2.9551,-2.9561,-2.9592,-2.9605,-2.9629,-2.9659,-2.9694,-2.9717,-2.9751,-2.9801,-2.981,-2.9823,-2.9827,-2.983,-2.9834,-2.9862,-2.9868,-2.9803,-2.9803,-2.9803,0,0,-2.9386,-2.9415,-2.9436,-2.9489,-2.9513,-2.9549,-2.954,-2.9578,-2.9604,-2.961,-2.9657,-2.9676,-2.971,-2.976,-2.9783,-2.9776,-2.9854,-2.9834,-2.9836,-2.9838,-2.9866,-2.9872,-2.9878,-2.9805,-2.9805,-2.9804,0,0,-2.9426,-2.9452,-2.9489,-2.9515,-2.9552,-2.957,-2.9579,-2.9617,-2.963,-2.9677,-2.9683,-2.9714,-2.9774,-2.9798,-2.9818,-2.9869,-2.9871,-2.9879,-2.9899,-2.9926,-2.9931,-2.9936,-2.9953,-2.9959,-2.9884,-2.9884,-2.9884,0,-2.9436,-2.949,-2.9508,-2.9546,-2.9569,-2.9578,-2.9616,-2.9639,-2.9685,-2.9701,-2.9693,-2.9769,-2.9793,-2.9848,-2.986,-2.9877,-2.9887,-2.9874,-2.9929,-2.9934,-2.9938,-2.9955,-2.9962,-2.9884,-2.9884,-2.9884,-2.9884,0,-2.95,-2.9537,-2.9563,-2.9609,-2.9635,-2.9673,-2.9696,-2.972,-2.9729,-2.9747,-2.9794,-2.9824,-2.9864,-2.9878,-2.9886,-2.9934,-2.9929,-2.9925,-2.9911,-2.9945,-2.9961,-2.9968,-2.9885,-2.9885,-2.9885,-2.9885,0,0,-2.9539,-2.9596,-2.9605,-2.9626,-2.9668,-2.9697,-2.9736,-2.9776,-2.9796,-2.9828,-2.986,-2.9911,-2.9908,-2.9931,-2.9942,-2.9966,-3.0004,-2.9959,-2.996,-2.9966,-3.0059,-3.0061,-3.0068,-3.0006,-3.0007,-3.0008,-3.0056,0,-2.9583,-2.9652,-2.967,-2.9729,-2.9763,-2.9773,-2.9806,-2.9835,-2.9854,-2.9885,-2.9905,-2.9941,-2.9934,-2.9948,-2.9973,-2.9994,-3.0022,-2.9991,-3.0035,-3.0036,-3.0025,-3.0077,-3.0079,-3.0123,-3.0062,-3.0063,-3.0064,0,-2.9643,-2.9678,-2.974,-2.9779,-2.9794,-2.9824,-2.9862,-2.9893,-2.9926,-2.9938,-2.9964,-2.9973,-3.0013,-2.9998,-3.0053,-3.0031,-3.005,-3.0063,-3.0066,-3.007,-3.0052,-3.0082,-3.0137,-3.0143,-3.0074,-3.0074,-3.0073,0,-2.9665,-2.9727,-2.9772,-2.979,-2.9837,-2.9857,-2.9878,-2.991,-2.9933,-2.9967,-2.9982,-3.002,-3.004,-3.0069,-3.0087,-3.0075,-3.014,-3.0127,-3.0151,-3.015,-3.0163,-3.0162,-3.0222,-3.0177,-3.0177,-3.0177,-3.0176,0,-2.9712,-2.9749,-2.9783,-2.9811,-2.9853,-2.9873,-2.9915,-2.9935,-2.9964,-2.9996,-3.0006,-3.0035,-3.0059,-3.0091,-3.0106,-3.0149,-3.0158,-3.0168,-3.0171,-3.0167,-3.0165,-3.0179,-3.0176,-3.0178,-3.0178,-3.0178,-3.0177,0,-2.9743,-2.9767,-2.9817,-2.9858,-2.9869,-2.9898,-2.9932,-2.9959,-2.9978,-3.0018,-3.0029,-3.0058,-3.0097,-3.0119,-3.0167,-3.0177,-3.0225,-3.0227,-3.0214,-3.0215,-3.0238,-3.0235,-3.0308,-3.0318,-3.0266,-3.0267,-3.0267,0,-2.9771,-2.98,-2.9844,-2.9867,-2.9887,-2.9923,-2.9947,-2.9969,-2.9993,-3.0035,-3.0057,-3.0096,-3.0129,-3.019,-3.0215,-3.0253,-3.0255,-3.0278,-3.0261,-3.0256,-3.0255,-3.0253,-3.0256,-3.0281,-3.0281,-3.0282,-3.0282,0,-2.9818,-2.9828,-2.9863,-2.9903,-2.9931,-2.9963,-2.9994,-3.0012,-3.0038,-3.0065,-3.0106,-3.0131,-3.0181,-3.022,-3.026,-3.028,-3.0285,-3.0288,-3.0295,-3.029,-3.0281,-3.0286,-3.0221,-3.0286,-3.0285,-3.0285,-3.0285,-3.0285,-2.9848,-2.9874,-2.991,-2.9948,-2.9975,-3.0004,-3.0032,-3.0055,-3.0089,-3.0132,-3.0142,-3.0185,-3.0218,-3.0272,-3.0293,-3.0326,-3.0322,-3.0333,-3.0335,-3.0338,-3.0338,-3.0277,-3.0334,-3.0334,-3.0333,-3.0333,-3.0333,0,-2.9894,-2.9918,-2.9954,-2.9998,-3.0028,-3.0032,-3.0067,-3.0092,-3.013,-3.0161,-3.0193,-3.024,-3.0278,-3.0307,-3.0346,-3.0367,-3.037,-3.0376,-3.0374,-3.0379,-3.034,-3.033,-3.0373,-3.0373,-3.0373,-3.0373,-3.0373,-3.0373,-2.9922,-2.9968,-2.9983,-3.0041,-3.0065,-3.0107,-3.0127,-3.0154,-3.0179,-3.0231,-3.0263,-3.0282,-3.0312,-3.0354,-3.0389,-3.0396,-3.041,-3.0416,-3.0423,-3.0386,-3.0382,-3.0378,-3.0368,-3.0419,-3.0419,-3.046,-3.046,-3.046]}]]